KB0ALP Weather Reports


time (UTC)temp
C
wind
direction
speed
KPH
gust
KPH
rain 1hr
cm
rain 24hr
cm
rain mn
cm
humidity
%
barometer
mb
20260504110507 10 44 0.0 1.6 0.00 0.00 0.00 70 1003.5
20260504100503 10 48 0.0 3.2 0.00 0.00 0.00 73 1004.0
20260504081527 10 47 0.0 1.6 0.00 0.00 0.00 71 1004.8
20260504081011 10 47 0.0 1.6 0.00 0.00 0.00 72 1004.8
20260504080511 10 47 0.0 1.6 0.00 0.00 0.00 72 1004.9
20260504050505 12 52 0.0 0.0 0.00 0.00 0.00 64 1006.5
20260504050022 12 52 0.0 0.0 0.00 0.00 0.00 63 1006.5
20260504045511 13 52 0.0 0.0 0.00 0.00 0.00 63 1006.6
20260504045007 13 52 0.0 0.0 0.00 0.00 0.00 62 1006.6
20260504044528 13 52 0.0 0.0 0.00 0.00 0.00 61 1006.7
20260504044003 13 52 0.0 0.0 0.00 0.00 0.00 60 1006.7
20260504043505 13 52 0.0 0.0 0.00 0.00 0.00 59 1006.7
20260504043008 13 52 0.0 0.0 0.00 0.00 0.00 59 1006.8
20260504042504 14 52 0.0 0.0 0.00 0.00 0.00 58 1006.8
20260504042003 14 51 0.0 0.0 0.00 0.00 0.00 57 1006.7
20260504041515 14 51 0.0 0.0 0.00 0.00 0.00 56 1006.7
20260504041003 15 52 0.0 0.0 0.00 0.00 0.00 56 1006.7
20260504040504 15 51 0.0 1.6 0.00 0.00 0.00 56 1006.7
20260504040019 15 51 0.0 1.6 0.00 0.00 0.00 55 1006.7
20260504035509 15 51 0.0 0.0 0.00 0.00 0.00 55 1006.7
20260504035007 15 60 0.0 0.0 0.00 0.00 0.00 55 1006.7
20260504034524 15 60 0.0 0.0 0.00 0.00 0.00 54 1006.7
20260504034011 15 60 0.0 1.6 0.00 0.00 0.00 53 1006.7
20260504033507 15 60 0.0 1.6 0.00 0.00 0.00 53 1006.8
20260504033024 15 60 0.0 1.6 0.00 0.00 0.00 52 1006.8
20260504032503 15 60 0.0 4.8 0.00 0.00 0.00 52 1006.9
20260504032006 16 60 0.0 4.8 0.00 0.00 0.00 51 1006.9
20260504031528 16 86 0.0 3.2 0.00 0.00 0.00 51 1006.9
20260504031003 16 32 0.0 1.6 0.00 0.00 0.00 51 1006.9
20260504030504 16 32 0.0 1.6 0.00 0.00 0.00 50 1006.8
20260504030015 16 32 0.0 0.0 0.00 0.00 0.00 50 1006.8
20260504025510 16 32 0.0 1.6 0.00 0.00 0.00 49 1006.7
20260504025007 16 32 0.0 1.6 0.00 0.00 0.00 49 1006.8
20260504024530 16 32 0.0 3.2 0.00 0.00 0.00 49 1006.8
20260504024007 17 51 0.0 3.2 0.00 0.00 0.00 48 1006.7
20260504023508 17 53 0.0 1.6 0.00 0.00 0.00 48 1006.6
20260504023026 17 55 0.0 1.6 0.00 0.00 0.00 48 1006.6
20260504022509 17 44 0.0 1.6 0.00 0.00 0.00 48 1006.5
20260504022008 17 21 0.0 3.2 0.00 0.00 0.00 48 1006.5
20260504021525 17 49 0.0 3.2 0.00 0.00 0.00 47 1006.5
20260504021012 17 86 0.0 1.6 0.00 0.00 0.00 47 1006.4
20260504020508 17 91 0.0 3.2 0.00 0.00 0.00 46 1006.4
20260504020020 17 90 0.0 4.8 0.00 0.00 0.00 46 1006.4
20260504015506 17 101 1.6 4.8 0.00 0.00 0.00 46 1006.3
20260504015005 17 72 0.0 3.2 0.00 0.00 0.00 46 1006.2
20260504014515 18 67 0.0 1.6 0.00 0.00 0.00 45 1006.3
20260504014007 18 89 0.0 1.6 0.00 0.00 0.00 45 1006.3
20260504013504 18 89 0.0 1.6 0.00 0.00 0.00 45 1006.2
20260504013026 18 94 0.0 1.6 0.00 0.00 0.00 44 1006.1
20260504012507 18 98 0.0 3.2 0.00 0.00 0.00 44 1006.0
20260504012007 19 34 0.0 9.7 0.00 0.00 0.00 43 1005.9
20260504011522 19 103 0.0 9.7 0.00 0.00 0.00 43 1005.9
20260504011006 19 105 1.6 6.4 0.00 0.00 0.00 42 1005.9
20260504010507 19 122 0.0 4.8 0.00 0.00 0.00 42 1005.9
20260504010024 20 92 0.0 6.4 0.00 0.00 0.00 42 1005.8
20260504005509 20 98 0.0 6.4 0.00 0.00 0.00 42 1005.8
20260504005004 20 56 1.6 6.4 0.00 0.00 0.00 41 1005.8
20260504004512 20 70 0.0 6.4 0.00 0.00 0.00 41 1005.8
20260504004003 20 70 0.0 8.0 0.00 0.00 0.00 41 1005.8
20260504003508 20 150 1.6 8.0 0.00 0.00 0.00 41 1005.7
20260504003017 20 64 0.0 9.7 0.00 0.00 0.00 41 1005.7
20260504002504 20 71 1.6 9.7 0.00 0.00 0.00 41 1005.6
20260504002007 20 105 0.0 4.8 0.00 0.00 0.00 40 1005.6
20260504001525 21 77 0.0 6.4 0.00 0.00 0.00 40 1005.7
20260504001008 21 54 0.0 6.4 0.00 0.00 0.00 41 1005.7
20260504000507 21 334 1.6 12.9 0.00 0.00 0.00 40 1005.6
20260504000049 21 59 3.2 12.9 0.00 0.00 0.00 40 1005.6
20260503235510 21 126 1.6 12.9 0.00 0.00 0.00 40 1005.6
20260503235009 21 70 3.2 12.9 0.00 0.00 0.00 40 1005.6
20260503234526 21 25 3.2 11.3 0.00 0.00 0.00 40 1005.6
20260503234011 21 57 0.0 6.4 0.00 0.00 0.00 40 1005.6
20260503233502 21 92 1.6 6.4 0.00 0.00 0.00 40 1005.7
20260503233013 21 40 3.2 8.0 0.00 0.00 0.00 40 1005.7
20260503232504 21 204 1.6 12.9 0.00 0.00 0.00 41 1005.8
20260503232007 21 37 3.2 12.9 0.00 0.00 0.00 40 1005.9
20260503231520 22 51 3.2 12.9 0.00 0.00 0.00 39 1005.9
20260503231007 22 324 3.2 14.5 0.00 0.00 0.00 39 1005.9
20260503230507 22 107 4.8 14.5 0.00 0.00 0.00 38 1005.9
20260503230022 22 174 3.2 12.9 0.00 0.00 0.00 39 1006.0
20260503225509 22 77 6.4 17.7 0.00 0.00 0.00 38 1006.0
20260503225009 22 95 3.2 17.7 0.00 0.00 0.00 39 1006.0
20260503224525 22 354 4.8 12.9 0.00 0.00 0.00 39 1006.0
20260503224009 22 79 3.2 17.7 0.00 0.00 0.00 38 1006.0
20260503223507 22 39 1.6 17.7 0.00 0.00 0.00 39 1006.0
20260503223036 22 203 3.2 12.9 0.00 0.00 0.00 37 1006.0
20260503222509 22 342 1.6 24.1 0.00 0.00 0.00 38 1005.9
20260503222010 23 75 6.4 24.1 0.00 0.00 0.00 37 1005.9
20260503221518 23 115 3.2 9.7 0.00 0.00 0.00 38 1005.9
20260503221007 23 88 4.8 17.7 0.00 0.00 0.00 36 1006.0
20260503220508 23 87 3.2 17.7 0.00 0.00 0.00 36 1005.8
20260503220022 23 204 4.8 17.7 0.00 0.00 0.00 36 1005.9
20260503215506 23 86 3.2 12.9 0.00 0.00 0.00 36 1005.9
20260503215007 23 49 4.8 12.9 0.00 0.00 0.00 36 1006.0
20260503214524 23 150 1.6 11.3 0.00 0.00 0.00 37 1006.0
20260503214010 23 354 3.2 12.9 0.00 0.00 0.00 36 1006.0
20260503213514 23 5 3.2 16.1 0.00 0.00 0.00 37 1006.0
20260503213027 23 351 4.8 16.1 0.00 0.00 0.00 36 1006.0
20260503212508 23 27 4.8 14.5 0.00 0.00 0.00 35 1006.2
20260503212007 23 77 4.8 12.9 0.00 0.00 0.00 35 1006.0
20260503211526 23 36 3.2 12.9 0.00 0.00 0.00 35 1006.1
20260503211011 23 84 3.2 14.5 0.00 0.00 0.00 36 1006.2
20260503210515 23 81 3.2 14.5 0.00 0.00 0.00 36 1006.3
20260503210011 22 308 4.8 12.9 0.00 0.00 0.00 37 1006.3
20260503205506 23 181 4.8 12.9 0.00 0.00 0.00 36 1006.4
20260503205007 22 267 4.8 12.9 0.00 0.00 0.00 37 1006.5
20260503204503 22 236 4.8 14.5 0.00 0.00 0.00 36 1006.4
20260503204005 23 124 1.6 14.5 0.00 0.00 0.00 37 1006.6
20260503203504 22 54 3.2 11.3 0.00 0.00 0.00 36 1006.6
20260503203018 22 238 3.2 16.1 0.00 0.00 0.00 37 1006.7
20260503202504 22 37 4.8 17.7 0.00 0.00 0.00 37 1006.6
20260503202004 22 267 4.8 17.7 0.00 0.00 0.00 37 1006.7
20260503201511 22 91 3.2 16.1 0.00 0.00 0.00 36 1006.9
20260503201003 22 109 3.2 16.1 0.00 0.00 0.00 39 1006.9
20260503200503 22 337 4.8 12.9 0.00 0.00 0.00 38 1006.9
20260503200015 22 304 3.2 14.5 0.00 0.00 0.00 37 1007.0
20260503195503 22 271 4.8 14.5 0.00 0.00 0.00 38 1007.1
20260503195005 22 60 1.6 12.9 0.00 0.00 0.00 40 1007.1
20260503194515 22 80 3.2 20.9 0.00 0.00 0.00 40 1007.2
20260503194005 22 29 6.4 20.9 0.00 0.00 0.00 38 1007.3
20260503193506 22 103 4.8 20.9 0.00 0.00 0.00 39 1007.4
20260503193012 21 138 4.8 20.9 0.00 0.00 0.00 38 1007.4
20260503192503 22 75 4.8 16.1 0.00 0.00 0.00 37 1007.6
20260503192002 22 334 3.2 12.9 0.00 0.00 0.00 38 1007.5
20260503191508 22 346 1.6 14.5 0.00 0.00 0.00 40 1007.6
20260503191004 22 300 3.2 14.5 0.00 0.00 0.00 38 1007.6
20260503190502 22 79 1.6 14.5 0.00 0.00 0.00 39 1007.6
20260503190013 22 49 6.4 14.5 0.00 0.00 0.00 39 1007.5
20260503185507 21 88 3.2 16.1 0.00 0.00 0.00 42 1007.7
20260503185003 21 52 4.8 16.1 0.00 0.00 0.00 42 1007.9
20260503184517 21 62 3.2 19.3 0.00 0.00 0.00 39 1008.0
20260503184007 21 175 1.6 19.3 0.00 0.00 0.00 41 1008.0
20260503183507 21 71 3.2 19.3 0.00 0.00 0.00 39 1008.0
20260503183016 21 162 4.8 19.3 0.00 0.00 0.00 41 1008.2
20260503182508 21 134 3.2 16.1 0.00 0.00 0.00 41 1008.1
20260503182006 20 255 1.6 16.1 0.00 0.00 0.00 42 1008.2
20260503181517 20 123 4.8 16.1 0.00 0.00 0.00 39 1008.1
20260503181002 21 55 4.8 16.1 0.00 0.00 0.00 39 1008.3
20260503180505 20 141 4.8 16.1 0.00 0.00 0.00 40 1008.3
20260503180016 20 139 3.2 17.7 0.00 0.00 0.00 41 1008.5
20260503175504 20 37 3.2 17.7 0.00 0.00 0.00 41 1008.6
20260503175003 20 84 4.8 16.1 0.00 0.00 0.00 41 1008.6
20260503174516 20 74 4.8 19.3 0.00 0.00 0.00 40 1008.8
20260503174007 20 23 6.4 19.3 0.00 0.00 0.00 40 1008.9
20260503173503 20 168 4.8 20.9 0.00 0.00 0.00 41 1009.0
20260503173036 19 36 3.2 20.9 0.00 0.00 0.00 42 1009.1
20260503172507 19 23 4.8 16.1 0.00 0.00 0.00 41 1009.1
20260503172004 19 51 6.4 16.1 0.00 0.00 0.00 40 1009.1
20260503171516 19 94 6.4 16.1 0.00 0.00 0.00 42 1009.1
20260503171006 19 84 4.8 19.3 0.00 0.00 0.00 42 1009.2
20260503170506 18 312 4.8 19.3 0.00 0.00 0.00 42 1009.2
20260503151005 11 33 1.6 9.7 0.00 0.00 0.00 58 1011.2
20260503150506 11 6 3.2 14.5 0.00 0.00 0.00 57 1011.4
20260503131007 10 38 0.0 6.4 0.00 0.00 0.00 67 1013.7
20260503130507 10 323 0.0 6.4 0.00 0.00 0.00 66 1013.8